Time,TemperatureF,DewpointF,PressureIn,WindDirection,WindDirectionDegrees,WindSpeedMPH,WindSpeedGustMPH,Humidity,HourlyPrecipIn,Conditions,Clouds,dailyrainin,SoftwareType,DateUTC
2013-07-23 00:02:00,84.0,72.0,29.85,SE,145,2.0,3.0,68,0.00,,,0.00,,2013-07-23 05:02:00,
2013-07-23 00:11:00,84.0,73.0,29.86,SSE,167,3.0,7.0,69,0.00,,,0.00,,2013-07-23 05:11:00,
2013-07-23 00:22:00,84.0,73.0,29.87,SSE,163,3.0,7.0,69,0.00,,,0.00,,2013-07-23 05:22:00,
2013-07-23 00:33:00,84.0,73.0,29.87,SSE,163,3.0,7.0,69,0.00,,,0.00,,2013-07-23 05:33:00,
2013-07-23 00:44:00,84.0,73.0,29.87,SSE,163,3.0,7.0,69,0.00,,,0.00,,2013-07-23 05:44:00,
2013-07-23 00:52:00,84.0,73.0,29.87,SSE,166,6.0,10.0,69,0.00,,,0.00,,2013-07-23 05:52:00,
2013-07-23 01:01:00,85.0,74.0,29.87,South,177,6.0,12.0,69,0.00,,,0.00,,2013-07-23 06:01:00,
2013-07-23 01:11:00,85.0,74.0,29.87,SSW,193,5.0,14.0,70,0.00,,,0.00,,2013-07-23 06:11:00,
2013-07-23 01:22:00,85.0,74.0,29.87,SSW,193,5.0,14.0,70,0.00,,,0.00,,2013-07-23 06:22:00,
2013-07-23 01:33:00,84.0,73.0,29.86,SSW,198,6.0,12.0,70,0.00,,,0.00,,2013-07-23 06:33:00,
2013-07-23 01:42:00,84.0,73.0,29.86,SSW,198,6.0,12.0,70,0.00,,,0.00,,2013-07-23 06:42:00,
2013-07-23 01:52:00,84.0,74.0,29.87,South,182,6.0,10.0,71,0.00,,,0.00,,2013-07-23 06:52:00,
2013-07-23 02:01:00,84.0,74.0,29.87,South,182,6.0,10.0,71,0.00,,,0.00,,2013-07-23 07:01:00,
2013-07-23 02:11:00,84.0,74.0,29.87,South,182,6.0,10.0,71,0.00,,,0.00,,2013-07-23 07:11:00,
2013-07-23 02:22:00,83.0,73.0,29.87,South,175,5.0,9.0,72,0.00,,,0.00,,2013-07-23 07:22:00,
2013-07-23 02:33:00,83.0,73.0,29.87,South,175,5.0,9.0,72,0.00,,,0.00,,2013-07-23 07:33:00,
2013-07-23 02:42:00,82.0,73.0,29.87,South,177,5.0,7.0,74,0.00,,,0.00,,2013-07-23 07:42:00,
2013-07-23 02:52:00,82.0,73.0,29.87,South,177,5.0,7.0,74,0.00,,,0.00,,2013-07-23 07:52:00,
2013-07-23 03:01:00,82.0,73.0,29.87,SE,146,4.0,7.0,75,0.00,,,0.00,,2013-07-23 08:01:00,
2013-07-23 03:11:00,82.0,73.0,29.87,SE,146,4.0,7.0,75,0.00,,,0.00,,2013-07-23 08:11:00,
2013-07-23 03:21:00,82.0,73.0,29.87,SE,146,4.0,7.0,75,0.00,,,0.00,,2013-07-23 08:21:00,
2013-07-23 03:33:00,81.0,73.0,29.87,SSE,166,4.0,7.0,77,0.00,,,0.00,,2013-07-23 08:33:00,
2013-07-23 03:43:00,81.0,73.0,29.87,SSE,166,4.0,7.0,77,0.00,,,0.00,,2013-07-23 08:43:00,
2013-07-23 03:52:00,81.0,73.0,29.86,South,170,5.0,8.0,77,0.00,,,0.00,,2013-07-23 08:52:00,
2013-07-23 04:01:00,80.0,72.0,29.86,SSE,162,5.0,8.0,78,0.00,,,0.00,,2013-07-23 09:01:00,
2013-07-23 04:11:00,80.0,72.0,29.87,South,180,4.0,12.0,78,0.00,,,0.00,,2013-07-23 09:11:00,
2013-07-23 04:22:00,80.0,72.0,29.87,South,180,4.0,12.0,78,0.00,,,0.00,,2013-07-23 09:22:00,
2013-07-23 04:33:00,80.0,73.0,29.86,South,175,5.0,10.0,79,0.00,,,0.00,,2013-07-23 09:33:00,
2013-07-23 04:53:00,80.0,73.0,29.86,SSW,197,3.0,8.0,80,0.00,,,0.00,,2013-07-23 09:53:00,
2013-07-23 05:02:00,79.0,72.0,29.87,South,169,4.0,12.0,80,0.00,,,0.00,,2013-07-23 10:02:00,
2013-07-23 05:11:00,79.0,72.0,29.87,South,169,4.0,12.0,80,0.00,,,0.00,,2013-07-23 10:11:00,
2013-07-23 05:22:00,79.0,73.0,29.87,South,189,4.0,8.0,81,0.00,,,0.00,,2013-07-23 10:22:00,
2013-07-23 05:32:00,79.0,73.0,29.87,South,189,4.0,8.0,81,0.00,,,0.00,,2013-07-23 10:32:00,
2013-07-23 05:44:00,79.0,73.0,29.87,South,189,4.0,8.0,81,0.00,,,0.00,,2013-07-23 10:44:00,
2013-07-23 05:52:00,79.0,73.0,29.87,South,189,4.0,8.0,81,0.00,,,0.00,,2013-07-23 10:52:00,
2013-07-23 06:02:00,79.0,73.0,29.87,South,189,4.0,8.0,81,0.00,,,0.00,,2013-07-23 11:02:00,
2013-07-23 06:12:00,78.0,72.0,29.88,South,176,4.0,8.0,81,0.00,,,0.00,,2013-07-23 11:12:00,
2013-07-23 06:22:00,78.0,72.0,29.88,South,176,4.0,8.0,81,0.00,,,0.00,,2013-07-23 11:22:00,
2013-07-23 06:32:00,78.0,72.0,29.88,South,171,3.0,7.0,81,0.00,,,0.00,,2013-07-23 11:32:00,
2013-07-23 06:43:00,78.0,72.0,29.88,South,171,3.0,7.0,81,0.00,,,0.00,,2013-07-23 11:43:00,
2013-07-23 06:52:00,78.0,72.0,29.88,South,171,3.0,7.0,81,0.00,,,0.00,,2013-07-23 11:52:00,
2013-07-23 07:02:00,78.0,71.0,29.88,South,171,5.0,9.0,80,0.00,,,0.00,,2013-07-23 12:02:00,
2013-07-23 07:11:00,78.0,71.0,29.88,SSE,163,5.0,9.0,79,0.00,,,0.00,,2013-07-23 12:11:00,
2013-07-23 07:22:00,78.0,71.0,29.88,South,181,5.0,8.0,80,0.00,,,0.00,,2013-07-23 12:22:00,
2013-07-23 07:33:00,78.0,71.0,29.89,SSW,192,5.0,10.0,80,0.00,,,0.00,,2013-07-23 12:33:00,
2013-07-23 07:43:00,78.0,71.0,29.89,SSW,192,5.0,10.0,80,0.00,,,0.00,,2013-07-23 12:43:00,
2013-07-23 08:01:00,79.0,73.0,29.89,SSW,209,5.0,12.0,81,0.00,,,0.00,,2013-07-23 13:01:00,
2013-07-23 08:11:00,79.0,73.0,29.89,SSW,209,5.0,12.0,81,0.00,,,0.00,,2013-07-23 13:11:00,
2013-07-23 08:22:00,79.0,73.0,29.89,SSW,209,5.0,12.0,81,0.00,,,0.00,,2013-07-23 13:22:00,
2013-07-23 08:32:00,79.0,73.0,29.89,SSW,209,5.0,12.0,81,0.00,,,0.00,,2013-07-23 13:32:00,
2013-07-23 08:43:00,79.0,73.0,29.89,SSW,209,5.0,12.0,81,0.00,,,0.00,,2013-07-23 13:43:00,
2013-07-23 08:52:00,81.0,75.0,29.91,South,175,6.0,13.0,82,0.00,,,0.00,,2013-07-23 13:52:00,
2013-07-23 09:02:00,81.0,75.0,29.91,South,175,6.0,13.0,82,0.00,,,0.00,,2013-07-23 14:02:00,
2013-07-23 09:12:00,82.0,76.0,29.91,South,180,6.0,12.0,81,0.00,,,0.00,,2013-07-23 14:12:00,
2013-07-23 09:22:00,83.0,76.0,29.91,South,182,7.0,13.0,79,0.00,,,0.00,,2013-07-23 14:22:00,
2013-07-23 09:32:00,83.0,76.0,29.91,South,182,7.0,13.0,79,0.00,,,0.00,,2013-07-23 14:32:00,
2013-07-23 09:44:00,83.0,75.0,29.91,SSW,204,3.0,13.0,78,0.00,,,0.00,,2013-07-23 14:44:00,
2013-07-23 09:53:00,83.0,75.0,29.91,SSW,204,3.0,13.0,78,0.00,,,0.00,,2013-07-23 14:53:00,
2013-07-23 10:03:00,83.0,75.0,29.91,SSW,204,3.0,13.0,78,0.00,,,0.00,,2013-07-23 15:03:00,
2013-07-23 10:11:00,85.0,76.0,29.91,South,178,6.0,12.0,75,0.00,,,0.00,,2013-07-23 15:11:00,
2013-07-23 10:24:00,86.0,77.0,29.91,SW,227,6.0,12.0,75,0.00,,,0.00,,2013-07-23 15:24:00,
2013-07-23 10:32:00,86.0,77.0,29.91,SW,227,6.0,12.0,75,0.00,,,0.00,,2013-07-23 15:32:00,
2013-07-23 10:43:00,86.0,76.0,29.91,SSW,194,6.0,13.0,73,0.00,,,0.00,,2013-07-23 15:43:00,
2013-07-23 10:52:00,87.0,77.0,29.91,South,173,6.0,12.0,72,0.00,,,0.00,,2013-07-23 15:52:00,
2013-07-23 11:01:00,87.0,77.0,29.91,South,173,6.0,12.0,72,0.00,,,0.00,,2013-07-23 16:01:00,
2013-07-23 11:12:00,87.0,77.0,29.91,South,176,5.0,12.0,72,0.00,,,0.00,,2013-07-23 16:12:00,
2013-07-23 11:22:00,88.0,77.0,29.91,SE,144,3.0,12.0,71,0.00,,,0.00,,2013-07-23 16:22:00,
2013-07-23 11:33:00,88.0,77.0,29.91,WSW,240,5.0,12.0,70,0.00,,,0.00,,2013-07-23 16:33:00,
2013-07-23 11:43:00,89.0,77.0,29.91,SSW,198,5.0,12.0,68,0.00,,,0.00,,2013-07-23 16:43:00,
2013-07-23 11:52:00,89.0,77.0,29.90,South,185,7.0,13.0,68,0.00,,,0.00,,2013-07-23 16:52:00,
2013-07-23 12:02:00,89.0,76.0,29.90,South,188,7.0,12.0,66,0.00,,,0.00,,2013-07-23 17:02:00,
2013-07-23 12:11:00,89.0,76.0,29.90,SSE,147,5.0,14.0,66,0.00,,,0.00,,2013-07-23 17:11:00,
2013-07-23 12:21:00,89.0,76.0,29.90,SSE,147,5.0,14.0,66,0.00,,,0.00,,2013-07-23 17:21:00,
2013-07-23 12:32:00,91.0,77.0,29.89,SW,223,6.0,12.0,63,0.00,,,0.00,,2013-07-23 17:32:00,
2013-07-23 12:42:00,91.0,77.0,29.89,SW,223,6.0,12.0,63,0.00,,,0.00,,2013-07-23 17:42:00,
2013-07-23 12:53:00,92.0,78.0,29.88,South,187,7.0,14.0,64,0.00,,,0.00,,2013-07-23 17:53:00,
2013-07-23 13:03:00,92.0,78.0,29.88,SW,232,4.0,15.0,63,0.00,,,0.00,,2013-07-23 18:03:00,
2013-07-23 13:12:00,92.0,77.0,29.88,SSW,196,6.0,13.0,61,0.00,,,0.00,,2013-07-23 18:12:00,
2013-07-23 13:24:00,93.0,78.0,29.88,South,178,5.0,12.0,62,0.00,,,0.00,,2013-07-23 18:24:00,
2013-07-23 13:33:00,93.0,77.0,29.88,SSW,199,5.0,12.0,59,0.00,,,0.00,,2013-07-23 18:33:00,
2013-07-23 13:46:00,93.0,78.0,29.87,South,173,7.0,12.0,62,0.00,,,0.00,,2013-07-23 18:46:00,
2013-07-23 13:54:00,93.0,78.0,29.87,South,173,7.0,12.0,62,0.00,,,0.00,,2013-07-23 18:54:00,
2013-07-23 14:03:00,93.0,78.0,29.87,South,173,7.0,12.0,62,0.00,,,0.00,,2013-07-23 19:03:00,
2013-07-23 14:14:00,93.0,78.0,29.87,South,173,7.0,12.0,62,0.00,,,0.00,,2013-07-23 19:14:00,
2013-07-23 14:24:00,94.0,77.0,29.85,South,177,7.0,13.0,59,0.00,,,0.00,,2013-07-23 19:24:00,
2013-07-23 14:35:00,94.0,77.0,29.85,South,177,7.0,13.0,59,0.00,,,0.00,,2013-07-23 19:35:00,
2013-07-23 14:48:00,94.0,77.0,29.85,SSW,213,5.0,13.0,58,0.00,,,0.00,,2013-07-23 19:48:00,
2013-07-23 14:55:00,95.0,77.0,29.85,South,191,5.0,16.0,56,0.00,,,0.00,,2013-07-23 19:55:00,
2013-07-23 15:03:00,95.0,78.0,29.84,SSE,164,8.0,14.0,59,0.00,,,0.00,,2013-07-23 20:03:00,
2013-07-23 15:12:00,95.0,76.0,29.84,South,169,6.0,15.0,55,0.00,,,0.00,,2013-07-23 20:12:00,
2013-07-23 15:22:00,96.0,79.0,29.83,South,180,5.0,12.0,58,0.00,,,0.00,,2013-07-23 20:22:00,
2013-07-23 15:34:00,96.0,78.0,29.82,SSW,193,7.0,14.0,57,0.00,,,0.00,,2013-07-23 20:34:00,
2013-07-23 15:44:00,95.0,78.0,29.82,South,169,6.0,12.0,58,0.00,,,0.00,,2013-07-23 20:44:00,
2013-07-23 15:54:00,96.0,78.0,29.81,SSW,203,6.0,12.0,57,0.00,,,0.00,,2013-07-23 20:54:00,
2013-07-23 16:04:00,96.0,78.0,29.81,SSW,203,6.0,12.0,57,0.00,,,0.00,,2013-07-23 21:04:00,
2013-07-23 16:13:00,97.0,77.0,29.81,South,186,7.0,16.0,53,0.00,,,0.00,,2013-07-23 21:13:00,
2013-07-23 16:23:00,96.0,78.0,29.80,South,184,8.0,13.0,56,0.00,,,0.00,,2013-07-23 21:23:00,
2013-07-23 16:34:00,96.0,77.0,29.80,South,184,7.0,13.0,55,0.00,,,0.00,,2013-07-23 21:34:00,
2013-07-23 16:46:00,96.0,77.0,29.80,South,182,8.0,15.0,54,0.00,,,0.00,,2013-07-23 21:46:00,
2013-07-23 16:54:00,97.0,77.0,29.80,SSW,192,5.0,13.0,53,0.00,,,0.00,,2013-07-23 21:54:00,
2013-07-23 17:04:00,97.0,77.0,29.80,South,178,6.0,12.0,53,0.00,,,0.00,,2013-07-23 22:04:00,
2013-07-23 17:12:00,97.0,77.0,29.80,South,178,6.0,12.0,53,0.00,,,0.00,,2013-07-23 22:12:00,
2013-07-23 17:23:00,97.0,77.0,29.80,South,178,6.0,12.0,53,0.00,,,0.00,,2013-07-23 22:23:00,
2013-07-23 17:33:00,97.0,76.0,29.79,SSW,192,7.0,15.0,51,0.00,,,0.00,,2013-07-23 22:33:00,
2013-07-23 17:44:00,97.0,75.0,29.79,South,174,7.0,12.0,49,0.00,,,0.00,,2013-07-23 22:44:00,
2013-07-23 18:00:00,97.0,75.0,29.79,South,172,7.0,16.0,49,0.00,,,0.00,,2013-07-23 23:00:00,
2013-07-23 18:12:00,97.0,75.0,29.78,South,189,7.0,13.0,49,0.00,,,0.00,,2013-07-23 23:12:00,
2013-07-23 18:24:00,97.0,75.0,29.78,South,189,7.0,13.0,49,0.00,,,0.00,,2013-07-23 23:24:00,
2013-07-23 18:35:00,97.0,75.0,29.78,South,189,7.0,13.0,49,0.00,,,0.00,,2013-07-23 23:35:00,
2013-07-23 18:55:00,96.0,72.0,29.75,South,173,7.0,15.0,46,0.00,,,0.00,,2013-07-23 23:55:00,
2013-07-23 19:13:00,96.0,71.0,29.75,SSW,203,6.0,12.0,44,0.00,,,0.00,,2013-07-24 00:13:00,
2013-07-23 19:25:00,96.0,69.0,29.75,SW,214,7.0,15.0,42,0.00,,,0.00,,2013-07-24 00:25:00,
2013-07-23 19:34:00,95.0,68.0,29.75,South,191,6.0,13.0,41,0.00,,,0.00,,2013-07-24 00:34:00,
2013-07-23 19:53:00,95.0,66.0,29.75,South,182,7.0,12.0,39,0.00,,,0.00,,2013-07-24 00:53:00,
2013-07-23 20:03:00,94.0,64.0,29.76,South,184,5.0,13.0,38,0.00,,,0.00,,2013-07-24 01:03:00,
2013-07-23 20:12:00,94.0,64.0,29.77,South,187,5.0,9.0,38,0.00,,,0.00,,2013-07-24 01:12:00,
2013-07-23 20:24:00,94.0,65.0,29.77,South,191,5.0,12.0,39,0.00,,,0.00,,2013-07-24 01:24:00,
2013-07-23 20:33:00,94.0,65.0,29.77,South,191,5.0,12.0,39,0.00,,,0.00,,2013-07-24 01:33:00,
2013-07-23 20:43:00,92.0,65.0,29.77,SSW,193,2.0,8.0,41,0.00,,,0.00,,2013-07-24 01:43:00,
2013-07-23 20:55:00,91.0,65.0,29.77,South,176,2.0,7.0,43,0.00,,,0.00,,2013-07-24 01:55:00,
2013-07-23 21:03:00,90.0,65.0,29.77,SSE,163,3.0,6.0,44,0.00,,,0.00,,2013-07-24 02:03:00,
2013-07-23 21:24:00,89.0,66.0,29.78,SSE,163,1.0,3.0,47,0.00,,,0.00,,2013-07-24 02:24:00,
2013-07-23 21:36:00,89.0,66.0,29.78,SSE,163,1.0,3.0,47,0.00,,,0.00,,2013-07-24 02:36:00,
2013-07-23 21:46:00,88.0,66.0,29.78,South,174,2.0,3.0,48,0.00,,,0.00,,2013-07-24 02:46:00,
2013-07-23 21:55:00,88.0,66.0,29.78,SSW,202,1.0,3.0,48,0.00,,,0.00,,2013-07-24 02:55:00,
2013-07-23 22:02:00,88.0,66.0,29.78,South,171,0.0,3.0,49,0.00,,,0.00,,2013-07-24 03:02:00,
2013-07-23 22:13:00,88.0,66.0,29.78,South,171,0.0,3.0,49,0.00,,,0.00,,2013-07-24 03:13:00,
2013-07-23 22:23:00,88.0,66.0,29.78,South,171,0.0,3.0,49,0.00,,,0.00,,2013-07-24 03:23:00,
2013-07-23 22:35:00,87.0,67.0,29.80,SSE,165,2.0,3.0,52,0.00,,,0.00,,2013-07-24 03:35:00,
2013-07-23 22:44:00,86.0,66.0,29.80,South,175,2.0,3.0,52,0.00,,,0.00,,2013-07-24 03:44:00,
2013-07-23 23:01:00,85.0,66.0,29.80,SSE,165,0.0,0.0,54,0.00,,,0.00,,2013-07-24 04:01:00,
2013-07-23 23:11:00,85.0,67.0,29.80,SE,145,2.0,3.0,55,0.00,,,0.00,,2013-07-24 04:11:00,
2013-07-23 23:22:00,85.0,66.0,29.80,SE,142,3.0,6.0,54,0.00,,,0.00,,2013-07-24 04:22:00,
2013-07-23 23:32:00,85.0,67.0,29.80,SSE,149,2.0,5.0,55,0.00,,,0.00,,2013-07-24 04:32:00,
2013-07-23 23:43:00,85.0,67.0,29.80,SSE,149,2.0,5.0,55,0.00,,,0.00,,2013-07-24 04:43:00,
2013-07-23 23:52:00,85.0,67.0,29.80,SSE,149,2.0,5.0,55,0.00,,,0.00,,2013-07-24 04:52:00,